Stations météo

réclame
Mon MeteoGroup
Jerez De La Frontera aeropuert, Espagne (8451): Température de l'air & dewpoint: 17.04.2018 03:00:00 - 23.04.2018 03:00:00 (CEST)Jerez De La Frontera aeropuert, Espagne (8451): Vitesse du vent: 17.04.2018 03:00:00 - 23.04.2018 03:00:00 (CEST)Jerez De La Frontera aeropuert, Espagne (8451): Direction du vent: 17.04.2018 03:00:00 - 23.04.2018 03:00:00 (CEST)Jerez De La Frontera aeropuert, Espagne (8451): reduced air pressure: 17.04.2018 03:00:00 - 23.04.2018 03:00:00 (CEST)Jerez De La Frontera aeropuert, Espagne (8451): visibility: 17.04.2018 03:00:00 - 23.04.2018 03:00:00 (CEST)
Date & Time tt [°C] td [°C] ff [km/h] ff [knt] dd ppp [hPa] vv [km]
23.04.2018 03:00:00 16,5 15,4 15 8 ENE 1013,7 10
23.04.2018 02:00:00 15,9 15,4 11 6 N 1014,2 10
23.04.2018 01:00:00 16,3 15,7 4 2 - 1014,9 10
23.04.2018 00:00:00 16,5 15,5 0 0 N 1014,5 10
22.04.2018 23:00:00 16,7 15,4 4 2 S 1014,0 9
22.04.2018 22:00:00 17,3 15,8 5 3 NW 1013,0 9
22.04.2018 21:00:00 18,3 15,4 11 6 W 1012,6 6
22.04.2018 20:00:00 19,6 15,6 11 6 W 1012,5 9
22.04.2018 19:00:00 20,6 16,2 15 8 W 1012,2 9
22.04.2018 18:00:00 20,3 16,3 28 15 WNW 1012,1 9
22.04.2018 17:00:00 24,4 15,5 15 8 S 1011,5 9
22.04.2018 16:00:00 23,9 14,8 18 10 SSE 1011,9 9
22.04.2018 15:00:00 22,8 14,4 16 9 SSE 1012,5 9
22.04.2018 14:00:00 23,0 14,6 22 12 SSE 1012,6 9
22.04.2018 13:00:00 21,2 13,9 22 12 SE 1013,0 9
22.04.2018 12:00:00 20,7 14,3 21 11 SSE 1013,1 9
22.04.2018 11:00:00 19,2 14,5 16 9 SE 1013,3 8
22.04.2018 10:00:00 17,2 14,7 4 2 S 1013,0 8
22.04.2018 09:00:00 14,6 14,4 2 1 - 1013,5 7
22.04.2018 08:00:00 13,3 13,1 2 1 - 1012,7 5
22.04.2018 07:00:00 13,3 13,1 4 2 NNW 1012,6 9
22.04.2018 06:00:00 13,8 13,5 0 0 N 1012,8 8
22.04.2018 05:00:00 14,2 13,7 4 2 NNE 1013,2 10
22.04.2018 04:00:00 14,6 14,1 5 3 ENE 1013,4 10
22.04.2018 03:00:00 15,1 14,4 4 2 - 1014,2 10
22.04.2018 02:00:00 15,4 14,6 8 4 SW 1015,0 10
22.04.2018 01:00:00 15,5 14,5 4 2 - 1015,2 10
22.04.2018 00:00:00 15,8 15,0 5 3 S 1014,7 10
21.04.2018 23:00:00 16,1 14,8 5 3 NNW 1015,1 12
21.04.2018 22:00:00 16,8 14,4 5 3 WNW 1014,5 10
21.04.2018 21:00:00 17,5 14,7 24 13 SSW 1014,0 10
21.04.2018 20:00:00 18,9 15,2 15 8 SSW 1012,7 12
21.04.2018 19:00:00 20,5 14,6 13 7 NNE 1012,1 10
21.04.2018 18:00:00 21,3 14,9 11 6 ENE 1012,5 10
21.04.2018 17:00:00 20,6 14,3 15 8 ENE 1012,9 13
21.04.2018 16:00:00 20,9 14,7 16 9 E 1013,1 10
21.04.2018 15:00:00 19,8 13,0 21 11 SSE 1014,1 10
21.04.2018 14:00:00 19,0 12,5 28 15 S 1015,4 9
21.04.2018 13:00:00 20,0 12,4 29 16 SSE 1014,8 10
21.04.2018 12:00:00 18,9 12,6 28 15 S 1015,5 10
21.04.2018 11:00:00 19,0 13,0 21 11 SSE 1014,2 10
21.04.2018 10:00:00 18,8 12,5 9 5 SE 1012,6 10
21.04.2018 09:00:00 16,6 12,7 11 6 E 1011,6 10
21.04.2018 08:00:00 14,8 13,5 18 10 ENE 1011,1 10
21.04.2018 07:00:00 15,0 13,5 24 13 NNE 1011,7 10
21.04.2018 06:00:00 16,3 13,1 8 4 E 1014,9 9
21.04.2018 05:00:00 16,6 12,7 13 7 NNE 1014,5 10
21.04.2018 04:00:00 17,6 11,8 21 11 SE 1014,7 10
21.04.2018 03:00:00 17,1 12,0 24 13 ENE 1012,7 10
21.04.2018 02:00:00 16,3 12,3 24 13 W 1015,1 10
21.04.2018 01:00:00 16,0 11,8 2 1 - 1013,7 10
21.04.2018 00:00:00 17,3 11,6 15 8 E 1013,6 10
20.04.2018 23:00:00 17,0 11,7 21 11 E 1014,5 20
20.04.2018 22:00:00 16,8 11,7 11 6 SE 1014,5 10
20.04.2018 21:00:00 17,8 12,3 13 7 SE 1014,7 10
20.04.2018 20:00:00 19,1 12,4 13 7 SSE 1014,6 20
20.04.2018 19:00:00 20,1 12,3 13 7 SE 1014,6 10
20.04.2018 18:00:00 21,1 12,4 18 10 E 1013,7 10
20.04.2018 17:00:00 21,4 12,3 26 14 E 1013,6 20
20.04.2018 16:00:00 22,2 12,1 34 18 ESE 1013,5 10
20.04.2018 15:00:00 22,5 12,7 22 12 SE 1013,8 10
20.04.2018 14:00:00 22,4 12,3 29 16 ESE 1013,4 20
20.04.2018 13:00:00 21,7 13,0 34 18 E 1013,1 10
20.04.2018 12:00:00 20,6 12,2 28 15 E 1012,9 10
20.04.2018 11:00:00 19,9 12,4 26 14 E 1012,2 20
20.04.2018 10:00:00 19,4 11,8 8 4 ESE 1012,2 10
20.04.2018 09:00:00 16,4 11,6 0 0 N 1012,1 10
20.04.2018 08:00:00 15,1 10,9 11 6 E 1012,2 30
20.04.2018 07:00:00 14,4 10,4 9 5 ESE 1012,3 10
20.04.2018 06:00:00 15,1 10,5 13 7 ESE 1012,7 10
20.04.2018 05:00:00 15,7 10,2 21 11 ENE 1013,5 10
20.04.2018 04:00:00 16,5 10,1 22 12 E 1013,3 10
20.04.2018 03:00:00 16,0 10,4 13 7 E 1014,3 10
20.04.2018 02:00:00 15,0 10,4 9 5 E 1014,9 10
20.04.2018 01:00:00 15,3 10,4 11 6 E 1015,3 10
20.04.2018 00:00:00 15,9 10,4 9 5 E 1015,5 10
19.04.2018 23:00:00 17,0 10,4 11 6 E 1015,4 20
19.04.2018 22:00:00 18,2 10,2 9 5 ESE 1015,4 10
19.04.2018 21:00:00 19,8 10,8 9 5 ESE 1015,0 10
19.04.2018 20:00:00 21,7 11,1 15 8 ESE 1014,7 60
19.04.2018 19:00:00 23,2 10,7 22 12 ESE 1014,8 10
19.04.2018 18:00:00 24,9 10,0 24 13 E 1014,8 10
19.04.2018 17:00:00 25,8 10,5 22 12 E 1015,3 60
19.04.2018 16:00:00 25,8 10,3 22 12 E 1015,9 10
19.04.2018 15:00:00 25,4 9,6 24 13 E 1016,4 10
19.04.2018 14:00:00 25,5 11,3 21 11 E 1016,9 10
19.04.2018 13:00:00 24,7 10,1 18 10 E 1017,0 10
19.04.2018 12:00:00 23,5 10,6 13 7 ESE 1017,4 10
19.04.2018 11:00:00 20,8 10,8 8 4 SW 1017,9 10
19.04.2018 10:00:00 19,4 10,5 2 1 - 1017,8 10
19.04.2018 09:00:00 15,6 9,0 0 0 N 1018,1 10
19.04.2018 08:00:00 11,5 7,2 4 2 - 1017,8 10
19.04.2018 07:00:00 12,2 6,8 4 2 SSW 1017,9 10
19.04.2018 06:00:00 13,2 6,8 4 2 - 1018,2 10
19.04.2018 05:00:00 12,6 7,0 5 3 NE 1018,6 10
19.04.2018 04:00:00 14,2 6,9 11 6 E 1019,2 10
19.04.2018 03:00:00 13,5 7,5 11 6 NE 1019,6 10
19.04.2018 02:00:00 12,6 7,5 5 3 ENE 1020,1 10
19.04.2018 01:00:00 13,3 8,6 9 5 ENE 1020,2 10
19.04.2018 00:00:00 14,1 8,3 5 3 ENE 1020,4 10
18.04.2018 23:00:00 14,8 9,4 5 3 NE 1020,2 10
18.04.2018 22:00:00 17,2 6,7 9 5 ESE 1019,6 10
18.04.2018 21:00:00 20,2 8,2 8 4 SE 1019,1 10
18.04.2018 20:00:00 22,8 7,9 13 7 SE 1018,9 10
18.04.2018 19:00:00 24,6 8,9 13 7 SSE 1019,1 10
18.04.2018 18:00:00 25,5 10,2 16 9 S 1019,3 10
18.04.2018 17:00:00 26,6 10,8 15 8 SSE 1019,5 60
18.04.2018 16:00:00 26,8 13,5 8 4 - 1020,0 10
18.04.2018 15:00:00 26,5 12,5 5 3 - 1020,4 10
18.04.2018 14:00:00 25,6 12,0 8 4 SW 1020,4 60
18.04.2018 13:00:00 24,3 11,9 8 4 SSW 1020,7 10
18.04.2018 12:00:00 23,0 12,1 9 5 SW 1020,7 10
18.04.2018 11:00:00 21,8 10,8 9 5 E 1020,6 60
18.04.2018 10:00:00 18,6 11,1 4 2 - 1020,7 10
18.04.2018 09:00:00 12,5 10,0 0 0 N 1020,8 10
18.04.2018 08:00:00 9,2 8,0 0 0 N 1020,9 10
18.04.2018 07:00:00 10,1 8,9 8 4 N 1021,0 10
18.04.2018 06:00:00 9,4 7,6 9 5 N 1020,9 10
18.04.2018 05:00:00 9,8 8,6 0 0 N 1020,9 10
18.04.2018 04:00:00 10,2 9,0 0 0 N 1021,2 10
18.04.2018 03:00:00 11,4 9,1 4 2 N 1021,4 10
18.04.2018 02:00:00 12,5 9,3 9 5 E 1021,9 10
18.04.2018 01:00:00 13,8 9,4 4 2 ESE 1022,0 10
18.04.2018 00:00:00 15,5 9,2 8 4 SE 1022,1 10
17.04.2018 23:00:00 16,4 10,9 8 4 SSE 1021,9 25
17.04.2018 22:00:00 18,7 9,8 9 5 SSE 1021,2 10
17.04.2018 21:00:00 20,8 10,4 9 5 S 1020,9 10
17.04.2018 20:00:00 24,0 12,9 8 4 S 1020,8 25
17.04.2018 19:00:00 24,9 14,5 11 6 NW 1020,8 10
17.04.2018 18:00:00 25,4 14,1 5 3 WNW 1021,0 10
17.04.2018 17:00:00 24,9 13,7 4 2 - 1021,5 10
17.04.2018 16:00:00 23,9 12,2 5 3 - 1022,0 10
17.04.2018 15:00:00 22,8 11,7 5 3 - 1022,5 10
17.04.2018 14:00:00 21,8 12,6 8 4 NE 1022,8 30
17.04.2018 13:00:00 20,2 11,3 4 2 NW 1023,2 10
17.04.2018 12:00:00 18,2 13,4 9 5 N 1023,5 10
17.04.2018 11:00:00 16,4 13,2 9 5 N 1023,4 25
17.04.2018 10:00:00 13,4 11,5 5 3 NNW 1023,1 10
17.04.2018 09:00:00 9,6 9,3 2 1 - 1022,8 10
17.04.2018 08:00:00 7,5 7,4 0 0 N 1022,3 18
17.04.2018 07:00:00 7,9 7,7 0 0 N 1022,0 10
17.04.2018 06:00:00 8,2 7,9 0 0 N 1021,8 10
17.04.2018 05:00:00 8,7 8,4 0 0 N 1022,0 10
17.04.2018 04:00:00 9,1 8,8 0 0 N 1022,3 10
17.04.2018 03:00:00 9,8 9,3 0 0 N 1022,8 10

tt = Température de l'air
td = dewpoint
ff = Vitesse du vent
dd = Direction du vent
ppp = reduced air pressure
vv = visibility

stations d'obs. à proximité